Location: Mesa
(33.4220°N, 111.8220°W)
Time: 12:05:12
(UTC-07:00)

Hubble Space Telescope - Pass Details

Date: 27 November 2019
Orbit: 536 x 540 km, 28.5° (Epoch: 06 December)

Event Time Altitude Azimuth Distance (km) Brightness Sun altitude
Rises 19:15:03 0° 263° (W) 2,668 5.8 -23.6°
Reaches altitude 10° 19:17:52 10° 243° (WSW) 1,777 4.4 -24.2°
Maximum altitude 19:20:40 18° 200° (SSW) 1,354 3.1 -24.8°
Enters shadow 19:21:48 16° 179° (S) 1,432 3.0 -25.0°
